Погода в Новониколаевке

Украина / Донецкая область     48°33′43″N   37°22′14″E
темп.,
°C
ветер,
м/с
пор.,
м/с
влажн.,
%
обл.,
%
осадки,
мм/ч
давл.,
гПа
погр.,
м
9 мая, вс
вс900:00+7сз81393100 5.2 1011634
03:00+6сз61089100 8.9 1013819
06:00+5сз81283100 0.0 1014931
09:00+6сз81074100 0.0 10161049
12:00+11ссз91151100 0.0 10161715
15:00+13сз91041100 0.0 10182496
18:00+11ссз7105569 0.1 10201697
21:00+6сз410695 0.2 1023239
10 мая, пн
пн1000:00+5сз410785 0.0 1023235
03:00+4сз410843 0.0 1024210
06:00+4сз512795 0.0 1024346
09:00+10ссз71156100 0.0 10231381
12:00+13ссз91241100 0.0 10222411
15:00+13ссз81250100 0.0 10202066
18:00+11ссз91455100 0.0 10191627
21:00+9ссз101665100 0.1 10161183
11 мая, вт
вт1100:00+8ссз111888100 1.3 1012997
03:00+9с101693100 1.9 1011943
06:00+9св71293100 0.6 1012904
09:00+8св71177100 0.6 10131210
12:00+9св81171100 0.1 10131234
15:00+8ссв71085100 0.7 10141331
18:00+6с4692100 1.1 1013973
21:00+6в4894100 3.3 1014670
12 мая, ср
ср1200:00+7вюв5990100 0.6 1015872
03:00+7в599594 0.9 1015534
06:00+7вюв699273 0.3 1016521
09:00+11юв8107547 0.6 10161144
12:00+12юв91378100 0.5 10161331
15:00+13ююв9127441 1.9 10161263
18:00+12ююв61171100 0.2 1016758
21:00+11юв3479100 0.2 101689
13 мая, чт
чт1300:00+9юв369280 0.0 101697
03:00+10вюв369375 0.0 101697
06:00+10в398999 0.0 1016202
09:00+17вюв6106289 0.0 1016673
12:00+21вюв7950100 0.0 10151220
15:00+22юв7948100 0.0 10141398
18:00+21вюв61063100 0.0 1013647
21:00+15вюв411865 0.0 1014228